Home   Weather   Manizales   Past weeks

Flag for Colombia Past Weather in Manizales, Colombia — Yesterday and Last 2 Weeks

Now
64 °F

Passing clouds.


Feels Like: 64 °F
Forecast: 52 / 76 °F
Wind: 2 mph from North

Location: Pereira / Matecana

Current Time: Feb 19, 2017 at 7:14:37 am

Latest Report: Feb 19, 2017 at 6:00 am


Visibility: N/A

Pressure: 30.08 "Hg (23.40 "Hg at 2139m altitude)

Humidity: 83%

Dew Point: 59 °F

Location of ManizalesLocation

Past Weather in Manizales — Graph

°F

Manizales Temperature Yesterday

Maximum temperature yesterday: 84 °F (at 4:00 pm)
Minimum temperature yesterday: 59 °F (at 12:00 pm)
Average temperature yesterday: 72 °F

High & Low Weather Summary for the Past Weeks

 TemperatureHumidityPressure
High86 °F (Feb 4, 3:00 pm)100% (Feb 18, 12:00 pm)30.22 "Hg (Feb 18, 12:00 pm)
Low59 °F (Feb 18, 12:00 pm)37% (Feb 15, 5:00 pm)29.86 "Hg (Feb 5, 4:00 pm)
Average74 °F68%30.04 "Hg
* Reported Feb 4 6:00 am — Feb 19 6:00 am, Manizales, Weather by CustomWeather, © 2017

Note: Actual official high and low records may vary slightly from our data, if they occured in-between our weather recording intervals... More about our weather records

Advertising

Manizales Weather History for the Previous 24 Hours

Scroll right to see more
 ConditionsComfort  
Time TempWeatherWind HumidityBarometerVisibility
6:00 am
Sun, Feb 19
64 °FPassing clouds.2 mph83%30.08 "HgN/A
12:00 am68 °FPassing clouds.7 mph78%30.09 "HgN/A
11:00 pm
Sat, Feb 18
68 °FPassing clouds.7 mph78%30.10 "HgN/A
10:00 pm70 °FPassing clouds.7 mph73%30.09 "HgN/A
9:00 pm72 °FPassing clouds.6 mph69%30.07 "HgN/A
8:00 pm73 °FPassing clouds.5 mph61%30.06 "HgN/A
7:00 pm73 °FPassing clouds.5 mph57%30.03 "HgN/A
6:00 pm81 °FPassing clouds.5 mph45%30.00 "HgN/A
5:00 pm82 °FPassing clouds.5 mph45%29.99 "HgN/A
4:00 pm84 °FPassing clouds.5 mph45%29.98 "HgN/A
3:00 pm82 °FPassing clouds.5 mph51%30.00 "HgN/A
2:00 pm81 °FPassing clouds.7 mph58%30.03 "HgN/A
1:00 pm81 °FPassing clouds.2 mph58%30.06 "HgN/A
12:00 pm59 °FScattered clouds.5 mph100%30.12 "HgN/A
11:00 am77 °FScattered clouds.5 mph61%30.12 "HgN/A
10:00 am73 °FPassing clouds.5 mph65%30.15 "HgN/A
9:00 am72 °FPassing clouds.5 mph65%30.15 "HgN/A
8:00 am68 °FPassing clouds.7 mph69%30.14 "HgN/A
7:00 am63 °FScattered clouds.8 mph77%30.13 "HgN/A
Weather by CustomWeather, © 2017

See weather overviewHow to use our weather pages